Location: Newark
(25.1987°N, 100.3705°W)
Time: 05:15:37
(UTC+00:00)

LightSail 2 - Pass Details

Date: 15 April 2020
Orbit: 695 x 719 km, 24.0° (Epoch: 28 May)

Event Time Altitude Azimuth Distance (km) Brightness Sun altitude
Exits shadow 09:38:34 20° 102° (ESE) 1,569 7.2 -34.3°
Drops below altitude 10° 09:40:10 10° 100° (E) 2,154 8.1 -34.0°
Sets 09:42:35 0° 99° (E) 3,068 9.0 -33.6°
